[[{"header":{"parameterUnit":"m.s-1","parameterCategory":1,"la1":30.2991,"la2":30.254,"lo1":-89.0895,"lo2":-89.0444,"dy":0.0017,"dx":0.0017,"nx":28,"ny":28,"refTime":"2024-07-29T09:00:00:Z","depth":0,"parameterNumber":2,"parameterNumberName":"U-component_of_WINDS"},"data":[0,0,0,0,0,0,0,0,0,0,0,0,0,0,0,0,0,0,0,0,0,0,0,0,0,0,0,0,0,0,0,0,0,0,0,0,0,0,0,0,0,0,0,0,0,0,0,0,0,0,0,0,0,0,0,0,0,0,5.4473,5.4475,0,5.4639,5.4641,5.4643,5.4552,5.4547,5.4543,5.4539,5.4712,5.4721,5.4729,0,0,0,0,0,0,0,0,0,0,0,0,0,5.408,5.4087,5.4473,5.4475,5.4477,5.4639,5.4641,5.4643,5.4553,5.4547,5.4542,5.4537,5.4709,5.472,5.473,0,0,0,0,0,0,0,0,0,0,0,0,0,5.4249,5.409,5.4473,5.4451,5.4451,5.4638,5.4641,5.4644,5.4554,5.4547,5.454,5.4534,5.4706,5.4719,5.4732,5.495,0,0,5.4772,5.4778,0,0,0,0,0,0,0,0,5.4239,5.4263,5.4453,5.4453,5.4453,5.4568,5.4566,5.4747,5.4556,5.4515,5.4539,5.4531,5.467,5.4686,5.4732,5.4959,5.4966,5.4773,5.4782,5.4787,5.4791,0,0,0,0,0,0,0,5.4228,5.4256,5.4539,5.4455,5.4456,5.4434,5.4451,5.46,5.4629,5.4518,5.4512,5.4533,5.4669,5.4719,5.4735,5.4969,5.4773,5.4785,5.4793,5.4798,5.5381,5.5388,0,0,0,0,0,0,5.4217,5.4247,5.4534,5.4544,5.4327,5.4447,5.4465,5.4538,5.4627,5.4634,5.4538,5.4528,5.47,5.472,5.4741,5.5001,5.4787,5.48,5.4807,5.5373,5.5383,5.5391,0,0,0,0,0,0,5.4209,5.4243,5.4527,5.4394,5.4428,5.4461,5.4543,5.4545,5.4595,5.4642,5.4647,5.4584,5.4695,5.4722,5.4898,5.5006,5.4806,5.4818,5.5365,5.5376,5.5387,5.5524,0,0,0,0,0,0,5.4198,5.4241,5.4324,5.4396,5.4435,5.4681,5.455,5.4553,5.4618,5.4606,5.4687,5.4694,5.4692,5.4879,5.4912,5.5021,5.4828,5.5355,5.537,5.5383,5.551,5.5539,5.5563,0,0,0,0,0,5.4184,5.4358,5.4329,5.4364,5.454,5.4688,5.471,5.4704,5.4627,5.4711,5.4741,5.4691,5.4989,5.4898,5.4934,5.5048,5.5348,5.5366,5.5382,5.5498,5.5533,5.5563,0,0,0,0,0,0,5.4299,5.4367,5.4336,5.4537,5.4607,5.4672,5.4778,5.4741,5.4836,5.482,5.481,5.4829,5.5011,5.5048,5.4945,5.5264,5.5157,5.5182,5.5233,5.5267,5.5293,5.528,5.4839,0,0,0,0,0,5.4347,5.4461,5.4514,5.4687,5.4724,5.4745,5.4809,5.4798,5.4871,5.49,5.4943,5.5016,5.5125,5.5198,5.5302,5.5515,5.5531,5.5612,5.5639,5.566,5.5681,5.5795,5.5831,5.5446,5.5446,5.5446,0,0,5.4449,5.45,5.4573,5.4712,5.4764,5.4882,5.4771,5.4901,5.4988,5.492,5.5088,5.5122,5.5203,5.5398,5.5486,5.5434,5.5791,5.5682,5.5698,5.5708,5.5816,5.5852,5.5885,5.5458,5.5455,5.5454,0,0,5.4695,5.4745,5.4894,5.4949,5.5029,5.5042,5.5078,5.5148,5.5168,5.5336,5.5287,5.5391,5.5581,5.564,5.5695,5.5961,5.5918,5.5996,5.6134,5.6245,5.6275,5.6302,5.6395,5.6429,5.6017,5.6017,5.6018,0,5.4811,5.4986,5.4975,5.5108,5.517,5.5113,5.5263,5.5317,5.5429,5.5473,5.5413,5.5648,5.5699,5.5906,5.597,5.6018,5.6057,5.5986,5.6271,5.6298,5.6323,5.6412,5.6447,5.6026,5.6025,5.6024,5.6023,0,5.5125,5.5247,5.5357,5.5464,5.5539,5.568,5.569,5.5768,5.575,5.5769,5.594,5.5999,5.6112,5.6161,5.6146,5.6366,5.6331,5.6272,5.6164,5.6369,5.6452,5.6486,5.6039,5.6035,5.6033,5.6031,0,0,5.5447,5.5545,5.5585,5.5632,5.5717,5.5811,5.595,5.606,5.6125,5.6204,5.6319,5.6481,5.6426,5.6488,5.6479,5.6577,5.6782,5.6505,5.6507,5.6553,5.7025,5.7068,5.7107,5.6754,5.6761,5.6766,5.7018,0,5.5697,5.5937,5.593,5.6154,5.6266,5.6213,5.6333,5.6398,5.642,5.6518,5.6543,5.6656,5.6576,5.6613,5.6707,5.6737,5.6876,5.6719,5.6861,5.6866,5.684,5.7151,5.7197,5.7432,5.705,5.7056,5.706,0,5.602,5.6107,5.6342,5.6408,5.6455,5.6563,5.6662,5.6757,5.6829,5.6838,5.6907,5.6882,5.7023,5.6912,5.7104,5.6997,5.7055,5.7078,5.7087,5.7099,5.6974,5.717,5.7507,5.7542,5.7111,5.7107,5.7104,0,5.6229,5.6406,5.6568,5.661,5.6692,5.6769,5.6807,5.6873,5.6938,5.7026,5.7068,5.7171,5.7227,5.7308,5.7311,5.723,5.7505,5.7395,5.7516,5.7516,5.7575,5.7571,5.7925,5.7616,5.7615,5.7614,5.7614,0,5.6507,5.6653,5.6663,5.6763,5.6924,5.6915,5.7075,5.7105,5.7164,5.7269,5.723,5.7329,5.7328,5.743,5.7434,5.7592,5.7618,5.7629,5.7627,5.7631,5.763,5.7668,5.7651,5.7624,5.7622,5.762,5.7618,0,5.6768,5.6781,5.6954,5.7017,5.7036,5.7151,5.7205,5.73,5.7317,5.7451,5.7481,5.7509,5.7626,5.7638,5.7775,5.7777,5.7967,5.795,5.7942,5.7939,5.8058,5.8046,5.8447,5.8498,5.8158,5.8161,5.8164,0,5.6944,5.7054,5.7127,5.7194,5.7236,5.7344,5.741,5.7406,5.7477,5.7567,5.7651,5.7764,5.7854,5.8043,5.8076,5.818,5.8163,5.8297,5.8179,5.8178,5.8163,5.8156,5.8166,5.8319,5.8323,5.8326,5.8329,0,5.7254,5.7254,5.7351,5.745,5.7529,5.7607,5.768,5.7737,5.7742,5.7823,5.7942,5.8011,5.815,5.8262,5.8364,5.8403,5.8367,5.8366,5.8399,5.8403,5.8393,5.8397,5.8003,5.8356,5.8354,5.8352,5.835,5.8349,5.7476,5.757,5.7636,5.7745,5.7799,5.7867,5.7959,5.7987,5.8085,5.8196,5.8188,5.8319,5.8387,5.852,5.8566,5.8668,5.8624,5.8672,5.8684,5.8696,5.8707,5.8378,5.8687,5.8687,5.8686,5.8685,5.8685,0,5.7782,5.7822,5.7921,5.8023,5.8109,5.8066,5.8144,5.8218,5.8333,5.84,5.8488,5.8623,5.8732,5.8772,5.8878,5.8952,5.8938,5.8979,5.8973,5.8982,5.8742,5.8701,5.8989,5.8989,5.8989,5.8988,5.8988,5.8988,5.7951,5.8108,5.8116,5.8299,5.8338,5.8464,5.8512,5.8575,5.8627,5.8779,5.8869,5.8894,5.895,5.9059,5.9156,5.9165,5.9205,5.9254,5.9256,5.903,5.8999,5.897,5.8932,5.9263,5.9263,5.9487,5.9489,5.9491]},{"header":{"parameterUnit":"m.s-1","parameterCategory":1,"la1":30.2991,"la2":30.254,"lo1":-89.0895,"lo2":-89.0444,"dy":0.0017,"dx":0.0017,"nx":28,"ny":28,"refTime":"2024-07-29T09:00:00:Z","depth":0,"parameterNumber":3,"parameterNumberName":"V-component_of_WINDS"},"data":[0,0,0,0,0,0,0,0,0,0,0,0,0,0,0,0,0,0,0,0,0,0,0,0,0,0,0,0,0,0,0,0,0,0,0,0,0,0,0,0,0,0,0,0,0,0,0,0,0,0,0,0,0,0,0,0,0,0,0.798,0.7981,0,0.8052,0.8053,0.8054,0.8062,0.8061,0.806,0.8059,0.8133,0.8136,0.8138,0,0,0,0,0,0,0,0,0,0,0,0,0,0.7849,0.7851,0.798,0.7981,0.7982,0.8052,0.8053,0.8054,0.8062,0.8061,0.806,0.8059,0.8132,0.8135,0.8138,0,0,0,0,0,0,0,0,0,0,0,0,0,0.7912,0.7852,0.798,0.7994,0.7996,0.8052,0.8053,0.8054,0.8062,0.8061,0.806,0.8059,0.8131,0.8135,0.8139,0.8185,0,0,0.8151,0.8153,0,0,0,0,0,0,0,0,0.7908,0.7917,0.7991,0.7993,0.7996,0.8047,0.8034,0.8098,0.8062,0.8037,0.8059,0.8058,0.8105,0.8111,0.8127,0.8188,0.8191,0.8151,0.8154,0.8155,0.8156,0,0,0,0,0,0,0,0.7904,0.7914,0.8009,0.7992,0.7995,0.7997,0.8005,0.8046,0.8076,0.8039,0.804,0.8048,0.8106,0.8123,0.8129,0.8192,0.8151,0.8155,0.8157,0.8159,0.8293,0.8295,0,0,0,0,0,0,0.7897,0.791,0.8006,0.8011,0.7948,0.8,0.8009,0.8031,0.8076,0.8082,0.8049,0.8048,0.8117,0.8124,0.8131,0.8188,0.8155,0.8159,0.8161,0.8292,0.8294,0.8295,0,0,0,0,0,0,0.7894,0.7906,0.8003,0.7961,0.7973,0.8003,0.8029,0.8033,0.8051,0.8083,0.8089,0.8061,0.8116,0.8126,0.8171,0.819,0.8161,0.8164,0.8291,0.8293,0.8294,0.83,0,0,0,0,0,0,0.789,0.7904,0.7923,0.7961,0.7975,0.8042,0.803,0.8036,0.8057,0.8057,0.8096,0.8101,0.8116,0.8165,0.8175,0.8195,0.8167,0.8289,0.8292,0.8294,0.8299,0.8302,0.8305,0,0,0,0,0,0.7886,0.7922,0.7924,0.7935,0.7999,0.8044,0.8052,0.8068,0.8059,0.8077,0.8098,0.81,0.8186,0.817,0.8181,0.8202,0.8288,0.8291,0.8294,0.8297,0.8302,0.8305,0,0,0,0,0,0,0.7886,0.7927,0.793,0.7979,0.8008,0.8045,0.8069,0.8072,0.8104,0.8103,0.8122,0.813,0.8175,0.8193,0.8174,0.8248,0.8236,0.8241,0.8235,0.824,0.8243,0.8238,0.8171,0,0,0,0,0,0.7891,0.7924,0.7959,0.7999,0.8013,0.8038,0.8058,0.8068,0.8099,0.8111,0.8135,0.8164,0.8198,0.8219,0.8252,0.8301,0.8309,0.8321,0.8324,0.8327,0.8331,0.8357,0.8363,0.8304,0.8304,0.8304,0,0,0.7904,0.793,0.795,0.8,0.8023,0.8056,0.8049,0.8084,0.8109,0.8116,0.8161,0.8179,0.8213,0.8259,0.8281,0.8276,0.8349,0.833,0.8332,0.8335,0.8361,0.8366,0.8371,0.8306,0.8305,0.8305,0,0,0.7943,0.7967,0.8003,0.8026,0.8061,0.8077,0.8085,0.8122,0.8134,0.8178,0.8184,0.8213,0.8271,0.8294,0.8314,0.836,0.8363,0.837,0.8388,0.8413,0.8417,0.8422,0.8438,0.8443,0.8374,0.8374,0.8374,0,0.7954,0.8005,0.8021,0.8056,0.8078,0.8085,0.8121,0.8142,0.8186,0.8201,0.8194,0.8265,0.8288,0.834,0.8351,0.8367,0.8377,0.8366,0.8415,0.842,0.8424,0.8439,0.8445,0.8375,0.8375,0.8375,0.8374,0,0.8016,0.8051,0.8076,0.8118,0.8142,0.8177,0.8198,0.822,0.8227,0.8244,0.8288,0.8316,0.8354,0.8367,0.8375,0.8419,0.8415,0.8412,0.84,0.843,0.8445,0.8451,0.8376,0.8375,0.8375,0.8375,0,0,0.806,0.8108,0.8117,0.8136,0.8174,0.8201,0.8236,0.8273,0.8291,0.8321,0.835,0.8398,0.8395,0.8416,0.8427,0.8449,0.8482,0.8442,0.8443,0.8449,0.8533,0.8535,0.8542,0.8484,0.8485,0.8486,0.853,0,0.8104,0.8167,0.8182,0.8236,0.8268,0.8274,0.8304,0.8331,0.8347,0.8375,0.8393,0.8426,0.8419,0.8432,0.8454,0.8474,0.85,0.8471,0.8512,0.8513,0.8504,0.855,0.8553,0.8593,0.8536,0.8537,0.8538,0,0.8164,0.8194,0.8252,0.8284,0.8298,0.8326,0.836,0.8387,0.8417,0.8426,0.845,0.8457,0.8493,0.8479,0.8528,0.8508,0.8525,0.8537,0.8539,0.8544,0.8528,0.8556,0.8606,0.8612,0.8547,0.8546,0.8545,0,0.819,0.8245,0.8286,0.8301,0.8341,0.8359,0.8377,0.8405,0.8426,0.8455,0.8468,0.8502,0.852,0.8545,0.8561,0.8549,0.8609,0.8596,0.8617,0.8617,0.8631,0.863,0.8684,0.8641,0.8641,0.8641,0.8641,0,0.8238,0.8273,0.8298,0.8323,0.8362,0.8377,0.8415,0.8432,0.8457,0.8485,0.8492,0.8518,0.8537,0.8566,0.8578,0.8617,0.8625,0.8633,0.8636,0.8633,0.8632,0.8645,0.8643,0.8642,0.8642,0.8642,0.8641,0,0.8274,0.8292,0.8337,0.837,0.8379,0.8406,0.8434,0.8458,0.8473,0.8509,0.8518,0.8542,0.8575,0.8593,0.8636,0.8644,0.8687,0.8688,0.8677,0.8679,0.8699,0.8697,0.8765,0.8774,0.8724,0.8725,0.8725,0,0.8303,0.833,0.8365,0.8385,0.8402,0.8433,0.8454,0.847,0.8491,0.8525,0.8545,0.8579,0.8608,0.8661,0.8682,0.8714,0.8716,0.8737,0.8721,0.8716,0.8716,0.8714,0.8717,0.8741,0.8741,0.8741,0.8742,0,0.8354,0.8361,0.8391,0.8424,0.8448,0.8475,0.8501,0.8516,0.8536,0.8559,0.8593,0.8615,0.8658,0.8691,0.8724,0.8741,0.8745,0.8746,0.8753,0.875,0.8743,0.8747,0.8685,0.8745,0.8745,0.8745,0.8744,0.8744,0.8388,0.8411,0.8439,0.8472,0.8493,0.8517,0.8541,0.8559,0.8588,0.8624,0.8631,0.8667,0.8694,0.8739,0.8757,0.8785,0.878,0.879,0.8793,0.8795,0.8796,0.8738,0.8791,0.8791,0.8791,0.8791,0.879,0,0.8439,0.8456,0.8486,0.8522,0.8547,0.8548,0.8576,0.8597,0.8629,0.8654,0.8681,0.872,0.8752,0.8774,0.8807,0.8825,0.8827,0.8832,0.8832,0.8835,0.8798,0.8789,0.883,0.883,0.883,0.883,0.883,0.883,0.8468,0.8508,0.8518,0.8568,0.8585,0.8621,0.8637,0.8659,0.8678,0.8722,0.8748,0.8762,0.8786,0.882,0.8849,0.8854,0.8866,0.8871,0.8877,0.8842,0.8838,0.8834,0.8826,0.8874,0.8874,0.8912,0.8912,0.8913]}]]